[[{"header":{"parameterUnit":"m.s-1","parameterCategory":1,"la1":30.2991,"la2":30.254,"lo1":-89.0895,"lo2":-89.0444,"dy":0.0017,"dx":0.0017,"nx":28,"ny":28,"refTime":"2025-06-09T21:00:00:Z","depth":0,"parameterNumber":2,"parameterNumberName":"U-component_of_WINDS"},"data":[0,0,0,0,0,0,0,0,0,0,0,0,0,0,0,0,0,0,0,0,0,0,0,0,0,0,0,0,0,0,0,0,0,0,0,0,0,0,0,0,0,0,0,0,0,0,0,0,0,0,0,0,0,0,0,0,0,0,0.5403,0.5406,0,0.5664,0.5667,0.567,0.5757,0.5756,0.5755,0.5754,0.6026,0.6034,0.6042,0,0,0,0,0,0,0,0,0,0,0,0,0,0.498,0.4987,0.5402,0.5406,0.5409,0.5664,0.5667,0.5671,0.5758,0.5756,0.5755,0.5754,0.6023,0.6033,0.6043,0,0,0,0,0,0,0,0,0,0,0,0,0,0.5195,0.499,0.5402,0.5483,0.5493,0.5663,0.5667,0.5672,0.5758,0.5756,0.5755,0.5753,0.602,0.6032,0.6044,0.6154,0,0,0.6082,0.6088,0,0,0,0,0,0,0,0,0.5182,0.521,0.5468,0.5478,0.5489,0.5676,0.5618,0.5834,0.5758,0.5657,0.5754,0.5752,0.5911,0.5933,0.5985,0.6167,0.6179,0.6083,0.6091,0.6096,0.61,0,0,0,0,0,0,0,0.5167,0.5199,0.5506,0.5471,0.5484,0.5507,0.5535,0.5659,0.5791,0.5666,0.5673,0.5702,0.5917,0.5973,0.5992,0.6183,0.6083,0.6094,0.6102,0.6107,0.6468,0.647,0,0,0,0,0,0,0.5138,0.5186,0.5498,0.5514,0.5328,0.5516,0.5548,0.5618,0.579,0.5814,0.5704,0.5706,0.5953,0.5978,0.6002,0.6144,0.6096,0.6108,0.6115,0.6465,0.6468,0.647,0,0,0,0,0,0,0.5129,0.5165,0.5487,0.5352,0.5395,0.5525,0.5603,0.5624,0.5681,0.5818,0.5842,0.5737,0.5953,0.5985,0.6116,0.6154,0.6113,0.6125,0.6463,0.6466,0.6469,0.6425,0,0,0,0,0,0,0.5117,0.5162,0.5205,0.5352,0.5402,0.5596,0.5605,0.563,0.5701,0.5706,0.5856,0.5879,0.5954,0.6097,0.6128,0.617,0.6134,0.646,0.6464,0.6468,0.6424,0.6427,0.6429,0,0,0,0,0,0.5101,0.5183,0.5206,0.5243,0.5458,0.5598,0.5626,0.5709,0.5704,0.5749,0.5836,0.5874,0.6143,0.6109,0.6145,0.6192,0.6458,0.6463,0.6468,0.6423,0.6426,0.6429,0,0,0,0,0,0,0.5038,0.5204,0.5232,0.5364,0.5465,0.5612,0.5672,0.571,0.5817,0.5818,0.5917,0.595,0.6073,0.6145,0.6104,0.6307,0.6303,0.6315,0.6256,0.6261,0.6263,0.6245,0.6145,0,0,0,0,0,0.5039,0.5138,0.5277,0.538,0.543,0.5541,0.5605,0.566,0.577,0.5815,0.5912,0.6019,0.6128,0.6197,0.6305,0.6433,0.6468,0.6483,0.6485,0.6487,0.6497,0.6571,0.658,0.6486,0.6486,0.6486,0,0,0.5044,0.5146,0.5203,0.537,0.5456,0.5557,0.5577,0.5683,0.576,0.5831,0.5961,0.6035,0.6161,0.6291,0.6353,0.6355,0.653,0.6493,0.6493,0.6503,0.6577,0.6586,0.6593,0.6489,0.6489,0.6488,0,0,0.5104,0.519,0.5285,0.537,0.5498,0.5571,0.5593,0.5734,0.5786,0.5916,0.5972,0.6064,0.6249,0.6336,0.6405,0.6493,0.6532,0.6525,0.6539,0.661,0.6617,0.6624,0.6658,0.6668,0.6534,0.6534,0.6534,0,0.5094,0.5247,0.533,0.5433,0.5505,0.5571,0.5669,0.5747,0.5904,0.5953,0.5951,0.6184,0.6273,0.6425,0.6446,0.6498,0.6528,0.6511,0.6609,0.6617,0.6625,0.6658,0.667,0.6532,0.6533,0.6533,0.6533,0,0.5229,0.5334,0.5395,0.5544,0.5622,0.5722,0.582,0.589,0.5936,0.6009,0.6141,0.6249,0.638,0.6419,0.6466,0.6577,0.6574,0.6589,0.6588,0.6631,0.6664,0.6677,0.653,0.6531,0.6531,0.6532,0,0,0.5262,0.5451,0.5473,0.5541,0.5685,0.5769,0.587,0.5996,0.6055,0.6159,0.6248,0.6401,0.6416,0.6493,0.655,0.6611,0.6676,0.662,0.6624,0.6629,0.6806,0.6796,0.681,0.6701,0.6703,0.6706,0.6797,0,0.5342,0.5527,0.5603,0.5753,0.5851,0.5913,0.6002,0.61,0.617,0.6264,0.6341,0.6449,0.6459,0.6506,0.6569,0.6655,0.6714,0.6649,0.6787,0.6791,0.6757,0.6827,0.6817,0.6898,0.681,0.6812,0.6813,0,0.5463,0.5567,0.5725,0.5856,0.5901,0.5979,0.61,0.6188,0.63,0.6347,0.6431,0.6484,0.6594,0.6581,0.6734,0.6688,0.6748,0.6798,0.6804,0.6823,0.6808,0.6851,0.6926,0.6939,0.6834,0.6832,0.6831,0,0.5474,0.5653,0.5771,0.5826,0.5982,0.6036,0.6103,0.6213,0.6283,0.6388,0.6435,0.6552,0.6617,0.6706,0.6789,0.6772,0.6935,0.6929,0.6979,0.6976,0.7014,0.7011,0.7103,0.7046,0.7046,0.7046,0.7045,0,0.5558,0.5654,0.5778,0.5851,0.5959,0.6044,0.6149,0.6221,0.6318,0.6407,0.6466,0.6548,0.6651,0.6747,0.6812,0.693,0.6958,0.7,0.7017,0.6997,0.6992,0.7041,0.7039,0.7049,0.7048,0.7048,0.7047,0,0.5591,0.5677,0.5811,0.5945,0.5981,0.6055,0.6171,0.6244,0.6314,0.6426,0.6457,0.6568,0.6683,0.6773,0.6924,0.6968,0.7092,0.7109,0.7054,0.7064,0.7109,0.7105,0.7239,0.7261,0.7186,0.7186,0.7187,0,0.5641,0.5716,0.5857,0.592,0.5986,0.6086,0.6157,0.6243,0.6315,0.6446,0.6504,0.6622,0.6723,0.6903,0.6998,0.7113,0.7136,0.7174,0.7154,0.7131,0.714,0.7136,0.7144,0.7178,0.7178,0.7179,0.7179,0,0.5722,0.576,0.586,0.5974,0.6056,0.6151,0.6247,0.6295,0.6397,0.6475,0.6592,0.6669,0.6821,0.6938,0.7062,0.7133,0.7174,0.7183,0.7202,0.7184,0.715,0.7172,0.7065,0.7182,0.7181,0.7181,0.7181,0.7181,0.5768,0.5836,0.5946,0.6055,0.6135,0.6222,0.6297,0.6376,0.6474,0.6604,0.6648,0.6769,0.6878,0.7048,0.7119,0.7215,0.7218,0.7243,0.7251,0.7257,0.7256,0.7131,0.7238,0.7238,0.7238,0.7238,0.7238,0,0.5854,0.5926,0.6025,0.6156,0.6241,0.6267,0.6374,0.6444,0.6549,0.6646,0.6742,0.6876,0.699,0.7092,0.721,0.7268,0.7289,0.7296,0.7295,0.7311,0.7245,0.7219,0.7277,0.7277,0.7277,0.7277,0.7277,0.7276,0.5909,0.6027,0.6077,0.6236,0.6308,0.6426,0.6484,0.6565,0.6643,0.679,0.6883,0.6948,0.7048,0.7173,0.7278,0.7305,0.7347,0.735,0.7382,0.732,0.7315,0.7311,0.7287,0.7357,0.7358,0.744,0.7441,0.7442]},{"header":{"parameterUnit":"m.s-1","parameterCategory":1,"la1":30.2991,"la2":30.254,"lo1":-89.0895,"lo2":-89.0444,"dy":0.0017,"dx":0.0017,"nx":28,"ny":28,"refTime":"2025-06-09T21:00:00:Z","depth":0,"parameterNumber":3,"parameterNumberName":"V-component_of_WINDS"},"data":[0,0,0,0,0,0,0,0,0,0,0,0,0,0,0,0,0,0,0,0,0,0,0,0,0,0,0,0,0,0,0,0,0,0,0,0,0,0,0,0,0,0,0,0,0,0,0,0,0,0,0,0,0,0,0,0,0,0,2.3225,2.3227,0,2.3498,2.3501,2.3504,2.3519,2.3516,2.3513,2.351,2.3791,2.3801,2.3811,0,0,0,0,0,0,0,0,0,0,0,0,0,2.2714,2.2723,2.3224,2.3228,2.3231,2.3497,2.3501,2.3505,2.352,2.3516,2.3512,2.3509,2.3788,2.38,2.3812,0,0,0,0,0,0,0,0,0,0,0,0,0,2.2956,2.2726,2.3224,2.3271,2.3278,2.3496,2.3501,2.3506,2.3521,2.3516,2.3511,2.3507,2.3783,2.3799,2.3814,2.4005,0,0,2.3862,2.3868,0,0,0,0,0,0,0,0,2.2942,2.2975,2.326,2.3268,2.3276,2.3469,2.3424,2.3673,2.3522,2.3429,2.351,2.3505,2.3688,2.3711,2.3773,2.4018,2.403,2.3863,2.3873,2.3879,2.3884,0,0,0,0,0,0,0,2.2925,2.2963,2.3332,2.3264,2.3274,2.3277,2.3307,2.3471,2.3581,2.3436,2.3438,2.347,2.3691,2.3758,2.3779,2.4034,2.3863,2.3876,2.3886,2.3892,2.4447,2.4452,0,0,0,0,0,0,2.29,2.2949,2.3324,2.3341,2.3094,2.329,2.3323,2.3412,2.358,2.36,2.3474,2.347,2.3733,2.3761,2.3789,2.4024,2.3879,2.3894,2.3903,2.4441,2.4448,2.4454,0,0,0,0,0,0,2.2889,2.2933,2.3313,2.3145,2.3194,2.3304,2.3404,2.342,2.3487,2.3608,2.3627,2.3522,2.3731,2.3767,2.395,2.4034,2.3901,2.3915,2.4435,2.4443,2.4451,2.4494,0,0,0,0,0,0,2.2874,2.2929,2.3004,2.3147,2.3203,2.3471,2.3409,2.3429,2.3513,2.3511,2.3658,2.3678,2.373,2.3927,2.3966,2.4053,2.3927,2.4428,2.4439,2.4448,2.4486,2.4503,2.4517,0,0,0,0,0,2.2856,2.3006,2.3007,2.3053,2.3298,2.3475,2.3507,2.3564,2.352,2.3596,2.3672,2.3673,2.4017,2.3946,2.399,2.4083,2.4423,2.4436,2.4447,2.4479,2.45,2.4517,0,0,0,0,0,0,2.2871,2.3026,2.3029,2.323,2.3339,2.3478,2.3575,2.3584,2.3708,2.3701,2.3765,2.3798,2.3979,2.4048,2.3966,2.4274,2.4215,2.4236,2.4224,2.4245,2.426,2.4242,2.394,0,0,0,0,0,2.2897,2.3028,2.3156,2.3321,2.3375,2.3465,2.3544,2.3577,2.3694,2.374,2.3831,2.3943,2.4076,2.4163,2.4293,2.4493,2.4526,2.4578,2.4594,2.4606,2.4626,2.4736,2.4762,2.4493,2.4493,2.4493,0,0,2.2955,2.3055,2.3134,2.3326,2.3415,2.3549,2.3504,2.3648,2.3748,2.3762,2.3942,2.4011,2.414,2.4333,2.4422,2.4396,2.4706,2.4621,2.463,2.4644,2.4751,2.4777,2.4799,2.4501,2.45,2.4499,0,0,2.3128,2.3216,2.3363,2.3451,2.3585,2.3643,2.3677,2.3814,2.3861,2.404,2.4053,2.4171,2.44,2.4491,2.4568,2.4768,2.4774,2.4808,2.4892,2.4999,2.502,2.5039,2.5113,2.5138,2.4825,2.4825,2.4826,0,2.3182,2.3385,2.3437,2.3581,2.3665,2.368,2.3829,2.3912,2.4082,2.4139,2.4106,2.4391,2.4479,2.4693,2.4741,2.4802,2.4844,2.4795,2.5012,2.5032,2.5051,2.5122,2.5149,2.4829,2.4829,2.4828,2.4828,0,2.3446,2.3585,2.3687,2.385,2.3944,2.4089,2.4163,2.4252,2.4274,2.4335,2.4517,2.4622,2.4772,2.4824,2.4849,2.5041,2.5021,2.4999,2.4942,2.5079,2.5147,2.5174,2.4834,2.4833,2.4832,2.4831,0,0,2.3644,2.3828,2.3866,2.3938,2.4084,2.4193,2.4336,2.4482,2.4558,2.4671,2.4795,2.4984,2.4964,2.5051,2.5084,2.5178,2.5331,2.5145,2.5149,2.5179,2.5551,2.557,2.56,2.5332,2.5338,2.5342,2.5541,0,2.3835,2.4094,2.4143,2.4368,2.4497,2.451,2.4635,2.4737,2.4796,2.4914,2.4978,2.5113,2.5075,2.5127,2.5219,2.5293,2.5408,2.5278,2.545,2.5455,2.5422,2.5635,2.5657,2.584,2.5567,2.5572,2.5575,0,2.4096,2.4215,2.4452,2.4578,2.4634,2.4746,2.4883,2.4994,2.5109,2.5145,2.5238,2.526,2.5409,2.5339,2.5546,2.5457,2.5528,2.5574,2.5583,2.5605,2.5528,2.5667,2.5899,2.5928,2.5617,2.5614,2.5611,0,2.422,2.4439,2.4609,2.467,2.482,2.4899,2.4965,2.5075,2.5158,2.5276,2.5331,2.5464,2.5538,2.564,2.5697,2.5641,2.5899,2.5834,2.5935,2.5934,2.5994,2.599,2.6245,2.6032,2.6031,2.6031,2.603,0,2.4432,2.4577,2.4666,2.4772,2.4934,2.4986,2.5145,2.521,2.5306,2.5424,2.5441,2.555,2.5616,2.5735,2.5779,2.5944,2.5976,2.601,2.6022,2.6012,2.6008,2.6064,2.6055,2.6038,2.6037,2.6035,2.6034,0,2.4601,2.4666,2.4853,2.4978,2.5012,2.5126,2.5233,2.5335,2.539,2.5539,2.5576,2.5665,2.5805,2.5869,2.6043,2.6072,2.6261,2.6261,2.6223,2.6228,2.6326,2.6317,2.6629,2.6673,2.6427,2.6429,2.6431,0,2.4735,2.4847,2.4982,2.5062,2.5129,2.5257,2.5341,2.5394,2.5482,2.5618,2.5703,2.5843,2.596,2.6182,2.6262,2.6394,2.64,2.6499,2.642,2.6407,2.6405,2.64,2.6412,2.6516,2.6518,2.652,2.6522,0,2.4966,2.4991,2.5112,2.5244,2.5343,2.545,2.5554,2.5618,2.5687,2.5783,2.5926,2.6016,2.6191,2.6331,2.6467,2.6534,2.6541,2.6545,2.6576,2.657,2.6545,2.6563,2.6267,2.6539,2.6538,2.6536,2.6535,2.6535,2.5124,2.5224,2.5334,2.5467,2.555,2.5646,2.5748,2.5814,2.5934,2.6082,2.6104,2.6257,2.6365,2.6548,2.662,2.6739,2.6716,2.676,2.6772,2.6783,2.679,2.652,2.6763,2.6763,2.6763,2.6762,2.6762,0,2.5359,2.5429,2.555,2.5695,2.5799,2.5791,2.5905,2.5993,2.6127,2.6227,2.6339,2.6502,2.6636,2.6723,2.6858,2.6937,2.6943,2.6971,2.6969,2.6984,2.6802,2.6764,2.6964,2.6964,2.6964,2.6964,2.6964,2.6964,2.5494,2.5662,2.5699,2.5908,2.5977,2.6126,2.6192,2.6279,2.6359,2.6541,2.6651,2.6706,2.6801,2.6942,2.7064,2.7086,2.7137,2.7166,2.7188,2.7018,2.6997,2.6977,2.6941,2.7176,2.7176,2.7361,2.7362,2.7364]}]]